Flight Track Log - Related Links

Times and Time Zones

All times are in EST time to prevent confusion due to time zone crossing. See the SWA4184 flight status page for this flight to view local times or setup timezone preferences in your user account.

Time Position Orientation Groundspeed Altitude Reporting Facility
EST Latitude Longitude Course Direction KTS MPH feet Rate Location/Type
10:14PM 29.6308 -95.2633 40° Northeast 169 194 700  Level Houston Center
10:15PM 29.6675 -95.2275 40° Northeast 214 246 3,300 2,344 Climbing Houston Center
10:16PM 29.7186 -95.2511 338° Northwest 228 262 5,700 3,179 Climbing Houston Center
10:17PM 29.7811 -95.2822 337° Northwest 240 276 9,500 2,829 Climbing Houston Center
10:18PM 29.8528 -95.3169 337° Northwest 278 320 11,500 2,459 Climbing Houston Center
10:19PM 29.9381 -95.3578 337° Northwest 325 374 14,500 3,098 Climbing Houston Center
10:20PM 30.0261 -95.4011 337° Northwest 342 394 17,800 3,148 Climbing Houston Center
10:21PM 30.1122 -95.4444 336° Northwest 342 394 20,900 2,607 Climbing Houston Center
10:22PM 30.2017 -95.4869 338° Northwest 344 396 23,100 2,164 Climbing Houston Center
10:23PM 30.2928 -95.5319 337° Northwest 354 407 25,300 2,213 Climbing Houston Center
10:24PM 30.4053 -95.5872 337° Northwest 362 417 27,600 2,164 Climbing Houston Center
10:25PM 30.5011 -95.6350 337° Northwest 372 428 29,700 1,918 Climbing Houston Center
10:26PM 30.5944 -95.6831 336° Northwest 368 423 31,500 1,721 Climbing Houston Center
10:27PM 30.6858 -95.7325 335° Northwest 365 420 33,200 1,721 Climbing Houston Center
10:28PM 30.7789 -95.7825 335° Northwest 366 421 35,000 1,672 Climbing Houston Center
10:29PM 30.8692 -95.8308 335° Northwest 361 415 36,600 1,426 Climbing Houston Center
10:30PM 30.9578 -95.8783 335° Northwest 353 406 37,900 689 Climbing Houston Center
10:31PM 31.0453 -95.9253 335° Northwest 348 400 38,000 49 Climbing Houston Center
10:32PM 31.1339 -95.9722 336° Northwest 347 399 38,000  Level Houston Center
10:33PM 31.2283 -96.0086 342° North 352 405 38,000  Level Houston Center
10:34PM 31.3200 -96.0439 342° North 348 400 38,000  Level Houston Center
10:35PM 31.4225 -96.0836 342° North 342 394 38,000  Level Houston Center
10:36PM 31.5147 -96.1206 341° North 345 397 38,000  Level Houston Center
10:37PM 31.5961 -96.1728 331° Northwest 332 382 38,000  Level Houston Center
10:38PM 31.6597 -96.2261 324° Northwest 342 394 38,000  Level Fort Worth Center
10:39PM 31.7414 -96.2983 323° Northwest 339 390 38,000  Level Fort Worth Center
10:40PM 31.8169 -96.3642 323° Northwest 338 389 38,000  Level Fort Worth Center
10:41PM 31.8925 -96.4317 323° Northwest 341 392 38,000  Level Fort Worth Center
10:42PM 31.9703 -96.4986 324° Northwest 344 396 38,000  Level Fort Worth Center
10:43PM 32.0453 -96.5661 323° Northwest 341 392 38,000  Level Fort Worth Center
10:44PM 32.1222 -96.6328 324° Northwest 342 394 38,000  Level Fort Worth Center
10:45PM 32.2142 -96.7133 323° Northwest 342 394 38,000  Level Fort Worth Center
10:46PM 32.2908 -96.7811 323° Northwest 343 395 38,000  Level Fort Worth Center
10:47PM 32.3644 -96.8492 322° Northwest 337 388 38,000  Level Fort Worth Center
10:49PM 32.4408 -96.9150 324° Northwest 340 391 38,000  Level Fort Worth Center
10:50PM 32.5175 -96.9825 323° Northwest 340 391 38,000  Level Fort Worth Center
10:51PM 32.5936 -97.0506 323° Northwest 343 395 38,000  Level Fort Worth Center
10:52PM 32.6697 -97.1194 323° Northwest 343 395 38,000  Level Fort Worth Center
10:53PM 32.7469 -97.1881 323° Northwest 344 396 38,000  Level Fort Worth Center
10:54PM 32.8258 -97.2572 324° Northwest 347 399 38,000  Level Fort Worth Center
10:55PM 32.9028 -97.3256 323° Northwest 345 397 38,000  Level Fort Worth Center
10:56PM 32.9822 -97.4017 321° Northwest 353 406 38,000  Level Fort Worth Center
10:57PM 33.0592 -97.4697 323° Northwest 344 396 38,000  Level Fort Worth Center
10:58PM 33.1356 -97.5383 323° Northwest 343 395 38,000  Level Fort Worth Center
10:59PM 33.2114 -97.6075 323° Northwest 343 395 38,000  Level Fort Worth Center
11:00PM 33.2883 -97.6775 323° Northwest 346 398 38,000  Level Fort Worth Center
11:01PM 33.3639 -97.7475 322° Northwest 344 396 38,000  Level Fort Worth Center
11:02PM 33.4394 -97.8150 323° Northwest 341 392 38,000  Level Fort Worth Center
11:03PM 33.5131 -97.8842 322° Northwest 338 389 38,000  Level Fort Worth Center
11:04PM 33.6017 -97.9656 323° Northwest 336 387 38,000  Level Fort Worth Center
11:05PM 33.6761 -98.0336 323° Northwest 336 387 38,000  Level Fort Worth Center
11:06PM 33.7497 -98.1025 322° Northwest 335 386 38,000  Level Fort Worth Center
11:07PM 33.8239 -98.1694 323° Northwest 334 384 38,000  Level Fort Worth Center
11:08PM 33.8981 -98.2389 322° Northwest 337 388 38,000  Level Fort Worth Center
11:09PM 33.9728 -98.3089 322° Northwest 339 390 38,000  Level Fort Worth Center
11:10PM 34.0481 -98.3789 322° Northwest 340 391 38,000  Level Fort Worth Center
11:11PM 34.1228 -98.4500 322° Northwest 344 396 38,000  Level Fort Worth Center
11:12PM 34.1986 -98.5200 323° Northwest 341 392 38,000  Level Fort Worth Center
11:13PM 34.2719 -98.5878 323° Northwest 337 388 38,000  Level Fort Worth Center
11:14PM 34.3453 -98.6567 322° Northwest 332 382 38,000  Level Fort Worth Center
11:15PM 34.4200 -98.7275 322° Northwest 340 391 38,000  Level Fort Worth Center
11:16PM 34.4933 -98.7978 322° Northwest 337 388 38,000  Level Fort Worth Center
11:17PM 34.5817 -98.8817 322° Northwest 335 386 38,000  Level Fort Worth Center
11:18PM 34.6558 -98.9506 323° Northwest 335 386 38,000  Level Fort Worth Center
11:19PM 34.7294 -99.0217 322° Northwest 338 389 38,000  Level Fort Worth Center
11:20PM 34.8031 -99.0919 322° Northwest 336 387 38,000  Level Fort Worth Center
11:21PM 34.8769 -99.1614 322° Northwest 335 386 38,000  Level Fort Worth Center
11:22PM 34.9508 -99.2322 322° Northwest 335 386 38,000  Level Fort Worth Center
11:23PM 35.0250 -99.3033 322° Northwest 337 388 38,000  Level Fort Worth Center
11:24PM 35.0986 -99.3744 322° Northwest 336 387 38,000  Level Fort Worth Center
11:25PM 35.1717 -99.4447 322° Northwest 334 384 38,000  Level Fort Worth Center
11:26PM 35.2467 -99.5167 322° Northwest 339 390 38,000  Level Fort Worth Center
11:27PM 35.3200 -99.5889 321° Northwest 338 389 38,000  Level Fort Worth Center
11:28PM 35.3939 -99.6597 322° Northwest 337 388 38,000  Level Fort Worth Center
11:29PM 35.4686 -99.7333 321° Northwest 341 392 38,000  Level Fort Worth Center
11:30PM 35.5144 -99.7769 322° Northwest 343 395 38,000  Level Albuquerque Center
11:31PM 35.5883 -99.8500 321° Northwest 342 394 38,000  Level Albuquerque Center
11:32PM 35.7089 -99.9683 321° Northwest 344 396 38,000  Level Albuquerque Center
11:33PM 35.7844 -100.0422 322° Northwest 345 397 38,000  Level Albuquerque Center
11:34PM 35.8592 -100.1161 321° Northwest 344 396 38,000  Level Albuquerque Center
11:35PM 35.9333 -100.1908 321° Northwest 343 395 38,000  Level Albuquerque Center
11:36PM 36.0075 -100.2633 322° Northwest 340 391 38,000  Level Albuquerque Center
11:37PM 36.0831 -100.3386 321° Northwest 344 396 38,000  Level Albuquerque Center
11:38PM 36.1572 -100.4114 322° Northwest 341 392 38,000  Level Albuquerque Center
11:39PM 36.2300 -100.4858 320° Northwest 339 390 38,000  Level Albuquerque Center
11:40PM 36.3053 -100.5583 322° Northwest 342 394 38,000  Level Albuquerque Center
11:41PM 36.3797 -100.6339 321° Northwest 343 395 38,000  Level Albuquerque Center
11:43PM 36.4678 -100.7233 321° Northwest 341 392 38,000  Level Albuquerque Center
11:44PM 36.5392 -100.7936 322° Northwest 342 394 38,000  Level Albuquerque Center
11:45PM 36.6100 -100.8656 321° Northwest 341 392 38,000  Level Albuquerque Center
11:46PM 36.6931 -100.9492 321° Northwest 342 394 38,000  Level Albuquerque Center
11:47PM 36.7642 -101.0228 320° Northwest 344 396 38,000  Level Albuquerque Center
11:48PM 36.8347 -101.0944 321° Northwest 343 395 38,000  Level Albuquerque Center
11:49PM 36.9178 -101.1794 321° Northwest 344 396 38,000  Level Albuquerque Center
11:50PM 36.9883 -101.2544 320° Northwest 347 399 38,000  Level Albuquerque Center
11:51PM 37.0592 -101.3275 321° Northwest 345 397 38,000  Level Albuquerque Center
11:52PM 37.1647 -101.4364 321° Northwest 342 394 38,000  Level Kansas City Center
11:53PM 37.2356 -101.5083 321° Northwest 341 392 38,000  Level Kansas City Center
11:54PM 37.3058 -101.5822 320° Northwest 342 394 38,000  Level Kansas City Center
11:55PM 37.3875 -101.6675 320° Northwest 341 392 38,000  Level Kansas City Center
11:56PM 37.4589 -101.7425 320° Northwest 345 397 38,000  Level Kansas City Center
11:57PM 37.5306 -101.8164 321° Northwest 346 398 38,000  Level Kansas City Center
11:58PM 37.6139 -101.9039 320° Northwest 347 399 38,000  Level Kansas City Center
11:59PM 37.6494 -101.9414 320° Northwest 345 397 38,000  Level Denver Center
11:59PM 37.6839 -101.9789 319° Northwest 345 397 38,000  Level Kansas City Center
12:00AM 37.7547 -102.0536 320° Northwest 345 397 38,000 -197 Level Kansas City Center
12:01AM 37.8372 -102.1411 320° Northwest 346 398 37,600 -593 Descending Kansas City Center
12:02AM 37.8697 -102.1836 314° West 346 398 37,100 -600 Descending Denver Center
12:02AM 37.8992 -102.2267 311° West 345 397 37,000 -98 Descending Kansas City Center
12:03AM 37.9322 -102.2694 314° West 346 398 37,000  Level Denver Center
12:04AM 37.9925 -102.3542 312° West 339 390 37,000  Level Denver Center
12:05AM 38.0664 -102.4533 313° West 345 397 37,000  Level Denver Center
12:06AM 38.1283 -102.5383 313° West 343 395 37,000  Level Denver Center
12:07AM 38.1900 -102.6231 313° West 342 394 37,000  Level Denver Center
12:08AM 38.2622 -102.7231 313° West 342 394 37,000 -295 Level Denver Center
12:09AM 38.3253 -102.8081 313° West 343 395 36,400 -738 Descending Denver Center
12:10AM 38.3872 -102.8956 312° West 346 398 35,500 -942 Descending Denver Center
12:11AM 38.4592 -102.9947 313° West 343 395 34,500 -744 Descending Denver Center
12:12AM 38.5222 -103.0806 313° West 346 398 34,000 -246 Descending Denver Center
12:13AM 38.5883 -103.1750 312° West 350 403 34,000  Level Denver Center
12:14AM 38.6533 -103.2658 313° West 349 402 34,000  Level Denver Center
12:15AM 38.7303 -103.3731 313° West 343 395 34,000  Level Denver Center
12:16AM 38.7925 -103.4594 313° West 339 390 34,000  Level Denver Center
12:17AM 38.8572 -103.5511 312° West 338 389 34,000 -694 Level Denver Center
12:18AM 38.9222 -103.6419 313° West 345 397 32,600 -1,736 Descending Denver Center
12:19AM 38.9844 -103.7308 312° West 337 388 30,500 -1,869 Descending Denver Center
12:20AM 39.0350 -103.8019 312° West 337 388 28,800 -2,262 Descending Denver Center
12:21AM 39.1164 -103.9206 312° West 318 366 25,900 -2,410 Descending Denver Center
12:22AM 39.1742 -104.0008 313° West 309 356 23,900 -1,785 Descending Denver Center
12:23AM 39.2306 -104.0839 311° West 308 354 22,300 -1,289 Descending Denver Center
12:24AM 39.2919 -104.1525 319° Northwest 298 343 21,300 -1,131 Descending Denver Center
12:25AM 39.3544 -104.2028 328° Northwest 271 312 20,000 -1,328 Descending Denver Center
12:26AM 39.4139 -104.2503 328° Northwest 257 296 18,600 -1,475 Descending Denver Center
12:27AM 39.4717 -104.2978 328° Northwest 249 287 17,000 -722 Descending Denver Center
12:28AM 39.5317 -104.3461 328° Northwest 253 291 17,000 -124 Level Denver Center
12:30AM 39.6031 -104.4050 328° Northwest 255 293 16,700 -851 Descending Denver Center
12:31AM 39.6714 -104.4622 327° Northwest 248 285 15,100 -1,426 Descending Denver Center
12:32AM 39.7269 -104.5061 329° Northwest 240 276 13,800 -1,426 Descending Denver Center
12:33AM 39.8078 -104.5222 351° North 257 296 12,200 -1,240 Descending Denver Center
12:34AM 39.8772 -104.5228 360° North 254 292 11,300 -873 Descending Denver Center
12:34AM 39.9333 -104.5167 North 238 274 10,600 -1,046 Descending Denver TRACON
12:35AM 40.0000 -104.5167 360° North 228 262 9,400 -1,271 Descending Denver TRACON
12:36AM 40.0333 -104.5667 311° West 206 237 8,100 -1,075 Descending Denver TRACON
12:38AM 39.9975 -104.6408 238° Southwest 195 224 7,000 -706 Descending Denver Center
12:39AM 39.9644 -104.6819 224° Southwest 163 188 6,500 -595 Descending Denver Center
12:40AM 39.9203 -104.6864 184° South 159 183 5,800 -595 Descending Denver Center
12:41AM 39.8775 -104.6867 180° South 160 184 5,300 -492 Descending Denver Center
12:43AM 39.8617 -104.6732 North  Level Estimated
12:50AM 39.8617 -104.6732 North  Level Estimated
12:51AM 39.8617 -104.6732 North  Level Estimated

Login

Don't have an account? Register now (free) for customized features, flight alerts, and more!